When you browse on this site, cookies collect data to enhance your experience and personalize the content and advertising you see.
Visit our Privacy Policy to learn more. By continuing to use the site, you agree to this use of cookies and data.

Hourly Weather Mörön

Today, 7 August, Friday

Time Temperature Precipitation Wind Pressure Humidity
00:00 +10°C° 0 mm 2 mps 617 mmHg 83%
01:00 +9°C° 0 mm 2 mps 617 mmHg 83%
02:00 +9°C° 0 mm 2 mps 616 mmHg 83%
03:00 +8°C° 0 mm 2 mps 616 mmHg 82%
04:00 +8°C° 0 mm 2 mps 616 mmHg 82%
05:00 +9°C° 0 mm 3 mps 616 mmHg 79%
06:00 +10°C° 0 mm 3 mps 617 mmHg 77%
07:00 +11°C° 0 mm 3 mps 617 mmHg 75%
08:00 +12°C° 0 mm 4 mps 617 mmHg 69%
09:00 +13°C° 0 mm 6 mps 618 mmHg 63%
10:00 +14°C° 0 mm 7 mps 618 mmHg 57%
11:00 +15°C° 0 mm 7 mps 618 mmHg 56%
12:00 +16°C° 0 mm 7 mps 618 mmHg 54%
13:00 +16°C° 0 mm 7 mps 618 mmHg 52%
14:00 +16°C° 0 mm 7 mps 618 mmHg 52%
15:00 +16°C° 0 mm 7 mps 618 mmHg 52%
16:00 +16°C° 0 mm 6 mps 618 mmHg 53%
17:00 +15°C° 0 mm 5 mps 618 mmHg 58%
18:00 +14°C° 0 mm 4 mps 617 mmHg 63%
19:00 +13°C° 0 mm 3 mps 617 mmHg 68%
20:00 +12°C° 0 mm 3 mps 617 mmHg 70%
21:00 +10°C° 0 mm 3 mps 617 mmHg 73%
22:00 +9°C° 0 mm 2 mps 616 mmHg 76%
23:00 +9°C° 0 mm 2 mps 616 mmHg 77%

Tomorrow, 8 August, Saturday

Time Temperature Precipitation Wind Pressure Humidity
00:00 +8°C° 0 mm 2 mps 616 mmHg 78%
01:00 +8°C° 0 mm 2 mps 616 mmHg 79%
02:00 +7°C° 0 mm 2 mps 615 mmHg 80%
03:00 +7°C° 0 mm 2 mps 615 mmHg 81%
04:00 +7°C° 0 mm 2 mps 615 mmHg 82%
05:00 +8°C° 0 mm 2 mps 615 mmHg 80%
06:00 +8°C° 0 mm 2 mps 615 mmHg 78%
07:00 +9°C° 0 mm 2 mps 616 mmHg 77%
08:00 +11°C° 0 mm 3 mps 616 mmHg 71%
09:00 +13°C° 0 mm 3 mps 616 mmHg 65%
10:00 +14°C° 0 mm 4 mps 616 mmHg 60%
11:00 +15°C° 0 mm 4 mps 616 mmHg 57%
12:00 +16°C° 0 mm 5 mps 616 mmHg 54%
13:00 +17°C° 0 mm 5 mps 616 mmHg 52%
14:00 +17°C° 0.1 mm 6 mps 616 mmHg 53%
15:00 +17°C° 0.1 mm 6 mps 616 mmHg 54%
16:00 +17°C° 0.1 mm 6 mps 616 mmHg 55%
17:00 +15°C° 0.2 mm 5 mps 616 mmHg 62%
18:00 +14°C° 0.2 mm 4 mps 616 mmHg 70%
19:00 +12°C° 0.2 mm 3 mps 615 mmHg 77%
20:00 +12°C° 0 mm 3 mps 616 mmHg 78%
21:00 +12°C° 0 mm 2 mps 616 mmHg 78%
22:00 +10°C° 0 mm 2 mps 617 mmHg 79%
23:00 +10°C° 0 mm 2 mps 616 mmHg 80%

Day after tomorrow, 9 August, Sunday

Time Temperature Precipitation Wind Pressure Humidity
00:00 +10°C° 0 mm 2 mps 616 mmHg 81%
01:00 +10°C° 0 mm 1 mps 616 mmHg 82%
02:00 +9°C° 0 mm 2 mps 616 mmHg 83%
03:00 +8°C° 0 mm 2 mps 616 mmHg 84%
04:00 +7°C° 0 mm 2 mps 616 mmHg 85%
05:00 +9°C° 0 mm 1 mps 616 mmHg 83%
06:00 +10°C° 0 mm 1 mps 616 mmHg 80%
07:00 +11°C° 0 mm 1 mps 617 mmHg 78%
08:00 +13°C° 0 mm 1 mps 617 mmHg 73%
09:00 +14°C° 0 mm 1 mps 617 mmHg 67%
10:00 +16°C° 0 mm 1 mps 617 mmHg 61%
11:00 +18°C° 0.1 mm 1 mps 617 mmHg 57%
12:00 +19°C° 0.1 mm 1 mps 617 mmHg 54%
13:00 +20°C° 0.1 mm 1 mps 617 mmHg 50%
14:00 +20°C° 0.4 mm 1 mps 617 mmHg 50%
15:00 +20°C° 0.4 mm 1 mps 616 mmHg 50%
16:00 +20°C° 0.4 mm 1 mps 616 mmHg 50%
17:00 +19°C° 0.7 mm 1 mps 616 mmHg 56%
18:00 +18°C° 0.7 mm 1 mps 616 mmHg 62%
19:00 +16°C° 0.7 mm 1 mps 615 mmHg 69%
20:00 +14°C° 0.5 mm 1 mps 615 mmHg 73%
21:00 +13°C° 0.5 mm 1 mps 615 mmHg 78%
22:00 +11°C° 0.5 mm 1 mps 615 mmHg 83%
23:00 +11°C° 0.5 mm 1 mps 615 mmHg 85%

10 August, Monday

Time Temperature Precipitation Wind Pressure Humidity
00:00 +11°C° 0.5 mm 1 mps 615 mmHg 86%
01:00 +10°C° 0.5 mm 0 mps 615 mmHg 87%
02:00 +9°C° 0.2 mm 0 mps 615 mmHg 88%
03:00 +10°C° 0.2 mm 1 mps 615 mmHg 89%
04:00 +10°C° 0.2 mm 1 mps 615 mmHg 90%
05:00 +10°C° 0.1 mm 1 mps 615 mmHg 88%
06:00 +11°C° 0.1 mm 1 mps 615 mmHg 87%
07:00 +11°C° 0.1 mm 1 mps 616 mmHg 85%
08:00 +12°C° 0.1 mm 1 mps 616 mmHg 81%
09:00 +13°C° 0.1 mm 1 mps 616 mmHg 78%
10:00 +15°C° 0.1 mm 2 mps 617 mmHg 74%
11:00 +15°C° 0.4 mm 2 mps 617 mmHg 71%
12:00 +16°C° 0.4 mm 2 mps 617 mmHg 69%
13:00 +17°C° 0.4 mm 2 mps 617 mmHg 66%
14:00 +17°C° 0.1 mm 2 mps 617 mmHg 66%
15:00 +17°C° 0.1 mm 2 mps 616 mmHg 65%
16:00 +18°C° 0.1 mm 2 mps 616 mmHg 65%
17:00 +17°C° 0.3 mm 2 mps 616 mmHg 70%
18:00 +16°C° 0.3 mm 2 mps 616 mmHg 75%
19:00 +15°C° 0.3 mm 1 mps 616 mmHg 80%
20:00 +14°C° 0.9 mm 1 mps 616 mmHg 82%
21:00 +13°C° 0.9 mm 1 mps 616 mmHg 85%
22:00 +11°C° 0.9 mm 0 mps 616 mmHg 87%
23:00 +12°C° 0.2 mm 1 mps 616 mmHg 87%

11 August, Tuesday

Time Temperature Precipitation Wind Pressure Humidity
00:00 +11°C° 0.2 mm 1 mps 616 mmHg 87%
01:00 +11°C° 0.2 mm 1 mps 616 mmHg 88%
02:00 +10°C° 0 mm 1 mps 616 mmHg 89%
03:00 +9°C° 0 mm 0 mps 616 mmHg 90%
04:00 +8°C° 0 mm 0 mps 615 mmHg 91%
05:00 +9°C° 0 mm 0 mps 616 mmHg 90%
06:00 +10°C° 0 mm 0 mps 616 mmHg 88%
07:00 +12°C° 0 mm 1 mps 617 mmHg 87%
08:00 +13°C° 0 mm 1 mps 617 mmHg 83%
09:00 +14°C° 0 mm 1 mps 617 mmHg 79%
10:00 +15°C° 0 mm 2 mps 617 mmHg 75%
11:00 +16°C° 0.1 mm 2 mps 617 mmHg 72%
12:00 +17°C° 0.1 mm 2 mps 617 mmHg 68%
13:00 +18°C° 0.1 mm 2 mps 617 mmHg 64%
14:00 +18°C° 0.5 mm 2 mps 617 mmHg 64%
15:00 +19°C° 0.5 mm 2 mps 617 mmHg 65%
16:00 +19°C° 0.5 mm 2 mps 617 mmHg 65%
17:00 +18°C° 0.7 mm 2 mps 617 mmHg 70%
18:00 +17°C° 0.7 mm 2 mps 617 mmHg 75%
19:00 +16°C° 0.7 mm 1 mps 617 mmHg 80%
20:00 +15°C° 0.3 mm 1 mps 617 mmHg 82%
21:00 +14°C° 0.3 mm 1 mps 617 mmHg 84%
22:00 +13°C° 0.3 mm 1 mps 617 mmHg 86%
23:00 +11°C° 0 mm 0 mps 616 mmHg 86%

12 August, Wednesday

Time Temperature Precipitation Wind Pressure Humidity
00:00 +11°C° 0 mm 0 mps 616 mmHg 86%
01:00 +11°C° 0 mm 0 mps 616 mmHg 87%
02:00 +10°C° 0 mm 0 mps 616 mmHg 88%
03:00 +10°C° 0 mm 0 mps 616 mmHg 88%
04:00 +10°C° 0 mm 0 mps 616 mmHg 89%
05:00 +10°C° 0 mm 0 mps 616 mmHg 88%
06:00 +11°C° 0 mm 0 mps 617 mmHg 87%
07:00 +12°C° 0 mm 0 mps 617 mmHg 85%
08:00 +14°C° 0.2 mm 0 mps 617 mmHg 80%
09:00 +16°C° 0.2 mm 1 mps 618 mmHg 75%
10:00 +18°C° 0.2 mm 1 mps 618 mmHg 70%
11:00 +20°C° 0.5 mm 1 mps 618 mmHg 64%
12:00 +21°C° 0.5 mm 1 mps 618 mmHg 58%
13:00 +22°C° 0.5 mm 1 mps 618 mmHg 52%
14:00 +22°C° 0.4 mm 1 mps 618 mmHg 51%
15:00 +22°C° 0.4 mm 1 mps 618 mmHg 50%
16:00 +22°C° 0.4 mm 1 mps 618 mmHg 49%
17:00 +21°C° 0.1 mm 1 mps 618 mmHg 55%
18:00 +20°C° 0.1 mm 1 mps 617 mmHg 60%
19:00 +19°C° 0.1 mm 1 mps 617 mmHg 65%
20:00 +18°C° 0 mm 1 mps 617 mmHg 69%
21:00 +15°C° 0 mm 1 mps 617 mmHg 73%
22:00 +14°C° 0 mm 1 mps 617 mmHg 77%
23:00 +14°C° 0 mm 1 mps 617 mmHg 77%
Show more